Location: Bacharowice
(49.9333°N, 19.5833°E)
Time: 13:12:59
(UTC+00:00)

USA 305 - Pass Details

Date: 28 September 2021
Orbit: 547 x 588 km, 54.0° (Epoch: 03 October)

Event Time Altitude Azimuth Distance (km) Brightness Sun altitude
Rises 18:51:34 0° 294° (WNW) 2,752 7.9 -23.5°
Reaches altitude 10° 18:53:53 10° 288° (WNW) 1,860 6.6 -23.8°
Enters shadow 18:57:47 42° 221° (SW) 823 3.7 -24.4°
